Regional Weather Roundup
Issued by NWS

Home | Current Version | Previous Version | Graphics & Text | Print | Product List | Glossary On
Versions: 1 2 3 4 5 6 7 8 9 10 11 12 13 14 15 16 17 18 19 20 21 22 23 24 25 26 27 28 29 30 31 32 33 34 35 36 37 38 39 40 41 42 43 44 45 46 47 48 49 50
000
ASUS43 KFSD 290502
RWRSD

WEATHER ROUNDUP FOR SOUTH DAKOTA
NATIONAL WEATHER SERVICE SIOUX FALLS SD
1200 AM CDT WED JUL 29 2015

NOTE: "FAIR" INDICATES FEW OR NO CLOUDS BELOW 12,000 FEET WITH NO
SIGNIFICANT WEATHER AND/OR OBSTRUCTIONS TO VISIBILITY.


SDZ001>005-009-010-012>017-290600-
NORTHWEST AND NORTH CENTRAL SOUTH DAKOTA

CITY           SKY/WX    TMP DP  RH WIND       PRES   REMARKS
BUFFALO          N/A     55  37  50 W14       30.04S
FAITH            N/A     61  40  45 W13       30.08S
MOBRIDGE       CLEAR     65  48  54 W14       29.95S
$$

SDZ012>016-024>037-041>051-057-063-072>074-290600-
SOUTHWEST AND SOUTH CENTRAL SOUTH DAKOTA

CITY           SKY/WX    TMP DP  RH WIND       PRES   REMARKS
RAPID CTY ARPT CLEAR     57  44  62 NW8       30.17R
PIERRE         CLEAR     66  47  50 W8        30.04R
CUSTER         CLEAR     55  33  43 N7        30.27R
ELLSWORTH AFB  CLEAR     58  44  59 W10       30.16S
PHILIP         CLEAR     57  49  74 W9        30.11R
PINE RIDGE     CLEAR     52  43  71 CALM      30.21R
WINNER         FAIR      65  49  56 W6        30.11R
$$

SDZ004>011-016>023-039-040-290600-
NORTHEAST SOUTH DAKOTA

CITY           SKY/WX    TMP DP  RH WIND       PRES   REMARKS
ABERDEEN       CLEAR     61  51  70 SW12      29.93S
WATERTOWN      CLEAR     64  52  64 SW9       29.98R
BROOKINGS      CLEAR     64  54  68 W6        30.05R
SISSETON         N/A     68  47  46 W13       29.89S
$$

SDZ017-020-022-023-036>040-048>070-290600-
SOUTHEAST SOUTH DAKOTA

CITY           SKY/WX    TMP DP  RH WIND       PRES   REMARKS
SIOUX FALLS    CLEAR     62  58  86 W3        30.05R
HURON          CLEAR     63  52  67 W7        30.01R
MITCHELL       CLEAR     64  54  69 W7        30.05R
YANKTON        CLEAR     64  54  68 N8        30.05R
$$

ABBREVIATIONS USED IN REMARKS
   TC - TEMPERATURE IN CELSIUS
  WCI - WIND CHILL INDEX
   HX - HEAT INDEX
  VSB - VISIBILITY



USA.gov is the U.S. government's official web portal to all federal, state and local government web resources and services.